User: anonymous   Login
Location: Unspecified
(0.0000°N, 0.0000°E)
Time: 06:54:35
(UTC+00:00)
Language:

OPTOS - Orbit

View from above orbital plane
View from above orbital plane
View from above satellite
View from above satellite

Ground track
Ground track

The orbit data is extracted from the following two-line orbital elements,

1 39429U 13066P   18351.15011280  .00000359  00000-0  71422-4 0  9996
2 39429  97.7136 318.5490 0147522 100.6099 261.1770 14.60866303270109
Epoch (UTC): 17 December 2018 03:36:09
Eccentricity: 0.0147522
inclination: 97.7136°
perigee height: 586 km
apogee height: 794 km
right ascension of ascending node: 318.5490°
argument of perigee: 100.6099°
revolutions per day: 14.60866303
mean anomaly at epoch: 261.1770°
orbit number at epoch: 27010

The dashed part of the orbit path shows where the satellite is in the earth's shadow,  

DLR